Regional Weather Roundup
Issued by NWS

Home | Current Version | Previous Version | Text Only | Print | Product List | Glossary Off
Versions: 1 2 3 4 5 6 7 8 9 10 11 12 13 14 15 16 17 18 19 20 21 22 23 24 25 26 27 28 29 30 31 32 33 34 35 36 37 38 39 40 41 42 43 44 45 46 47 48 49 50

000
ASUS43 KOAX 281210
RWRNE

WEATHER ROUNDUP FOR NEBRASKA
NATIONAL WEATHER SERVICE OMAHA NE
700 AM CDT MON JUL 28 2014

NOTES: SATELLITE DATA IS BEING USED TO AUGMENT CLOUD COVER ABOVE
       12000 FEET.
       "FAIR" INDICATES FEW OR NO CLOUDS BELOW 12,000 FEET WITH NO
       SIGNIFICANT WEATHER AND/OR OBSTRUCTIONS TO VISIBILITY.

  * THESE STATIONS DO NOT REPORT WEATHER SUCH AS RAIN...SNOW OR FOG.

NEZ001>004-019>022-054>056-281300-
NEBRASKA PANHANDLE

CITY           SKY/WX    TMP DP  RH WIND       PRES   REMARKS
SCOTTSBLUFF    CLEAR     58  50  75 E7        30.32S
6HR MIN TEMP:  58; 6HR MAX TEMP:  67;

ALLIANCE       CLEAR     53  49  86 E7        30.34S
6HR MIN TEMP:  52; 6HR MAX TEMP:  60;

CHADRON        CLEAR     54  50  86 N7        30.34S
6HR MIN TEMP:  54; 6HR MAX TEMP:  62;

KIMBALL        CLEAR     56  49  77 SE7       30.33F
SIDNEY         CLEAR     56  47  71 SE5       30.34S
6HR MIN TEMP:  56; 6HR MAX TEMP:  68;

$$

NEZ057>060-069>072-079>082-281300-
SOUTHWEST NEBRASKA

CITY           SKY/WX    TMP DP  RH WIND       PRES   REMARKS
NORTH PLATTE   CLEAR     53  50  89 E3        30.34R
6HR MIN TEMP:  52; 6HR MAX TEMP:  59;

IMPERIAL       PTCLDY    56  51  84 SE5       30.32S
6HR MIN TEMP:  56; 6HR MAX TEMP:  64;

LEXINGTON      CLEAR     54  53  95 NE3       30.32F
MCCOOK         PTCLDY    57  54  89 NE5       30.32R
6HR MIN TEMP:  57; 6HR MAX TEMP:  65;

OGALLALA       CLEAR     53  50  90 E5        30.33S
$$

NEZ005>010-023>029-035>040-094-281300-
NORTH CENTRAL NEBRASKA

CITY           SKY/WX    TMP DP  RH WIND       PRES   REMARKS
VALENTINE      CLEAR     50  48  93 W3        30.35R
6HR MIN TEMP:  49; 6HR MAX TEMP:  61;

AINSWORTH      CLEAR     52  51  97 CALM      30.35R
BROKEN BOW     CLEAR     53  51  93 N6        30.34R
6HR MIN TEMP:  52; 6HR MAX TEMP:  61;

O`NEILL        CLEAR     55  51  87 N7        30.32S
ORD            CLEAR     53  52  96 SW6       30.32R
6HR MIN TEMP:  52; 6HR MAX TEMP:  61;

THEDFORD       PTCLDY    51  50  95 CALM      30.36R
$$

NEZ041-046>049-061>064-073>077-083>087-281300-
SOUTH CENTRAL NEBRASKA

CITY           SKY/WX    TMP DP  RH WIND       PRES   REMARKS
GRAND ISLAND   CLEAR     57  54  89 NW6       30.32R
6HR MIN TEMP:  56; 6HR MAX TEMP:  63;

AURORA         CLEAR     56  56 100 NW3       30.30R
HASTINGS       CLEAR     58  54  86 NW5       30.31R
6HR MIN TEMP:  57; 6HR MAX TEMP:  63;

HEBRON         PTCLDY    58  54  84 N6        30.28R
HOLDREGE       CLEAR     56  55  94 NE3       30.32R
KEARNEY *      CLEAR     55  54  94 N6        30.32S
YORK           CLEAR     55  55 100 NW7       30.29S
$$

NEZ011>018-030>034-042>045-281300-
NORTHEAST NEBRASKA

CITY           SKY/WX    TMP DP  RH WIND       PRES   REMARKS
NORFOLK        CLEAR     56  53  90 NW3       30.28R
6HR MIN TEMP:  54; 6HR MAX TEMP:  60;

ALBION         CLEAR     53  51  93 CALM      30.31R
BLAIR          CLEAR     59  54  82 N9        30.23R
COLUMBUS *     CLEAR     55  50  82 NW7       30.28S
FREMONT        CLEAR     57  55  92 W5        30.25R
WAYNE          CLOUDY    58  56  93 NW8       30.26S
$$

NEZ050>053-065>068-078-088>093-281300-
SOUTHEAST NEBRASKA

CITY           SKY/WX    TMP DP  RH WIND       PRES   REMARKS
LINCOLN        CLEAR     60  54  80 NW7       30.27R
6HR MIN TEMP:  57; 6HR MAX TEMP:  66;

OMAHA EPPLEY   PTCLDY    58  55  90 N5        30.23R
6HR MIN TEMP:  58; 6HR MAX TEMP:  64;

BEATRICE       CLEAR     56  55  95 N8        30.25R
NEBRASKA CITY  CLEAR     58  58 100 NW5       30.24R
PLATTSMOUTH    CLEAR     57  54  91 CALM      30.23R
$$

NEZ044-045-051>053-067-281300-
OMAHA AREA

CITY           SKY/WX    TMP DP  RH WIND       PRES   REMARKS
OMAHA EPPLEY   PTCLDY    58  55  90 N5        30.23R
6HR MIN TEMP:  58; 6HR MAX TEMP:  64;

BLAIR          CLEAR     59  54  82 N9        30.23R
FREMONT        CLEAR     57  55  92 W5        30.25R
MILLARD        CLEAR     60  56  87 CALM      30.23R
OFFUTT AFB     CLEAR     60  59  97 N5        30.23R
PLATTSMOUTH    CLEAR     57  54  91 CALM      30.23R
WAHOO          FAIR      58  55  89 NW6       30.25R
$$



USA.gov is the U.S. government's official web portal to all federal, state and local government web resources and services.